User: anonymous   Login
Location: Unspecified
(0.0000°N, 0.0000°E)
Time: 06:37:00
(UTC+01:00)
Language:

Cosmos 1538 Rocket - Orbit

View from above orbital plane
View from above orbital plane
View from above satellite
View from above satellite

Ground track
Ground track

The orbit data is extracted from the following two-line orbital elements,

1 14760U 84019B   14331.80981197  .00000255  00000-0  96948-4 0  4767
2 14760 074.0455 032.0004 0026667 121.5716 349.6465 14.35583443609770
Epoch (UTC): 27 November 2014 19:26:07
Eccentricity: 0.0026667
inclination: 74.0455°
perigee height: 754 km
apogee height: 792 km
right ascension of ascending node: 32.0004°
argument of perigee: 121.5716°
revolutions per day: 14.35583443
mean anomaly at epoch: 349.6465°
orbit number at epoch: 60977

The dashed part of the orbit path shows where the satellite is in the earth's shadow,  

DLR